マクノート彗星

P/2011 Q3 ( McNaught )

English version
Home page
Updated on January 7, 2012

---------------------------------------------------------------------

・ プロフィール

発見日 2011年8月29日
発見光度 18.5等
発見者 Robert H. McNaught (Siding Spring)

・ 写真集

・ 軌道要素

Epoch 2011 Aug. 27.0 TT = JDT 2455800.5
T 2011 Aug. 14.29611 TT                                 MPC
q   2.3678372            (2000.0)            P               Q
n   0.08676972     Peri.  310.22640     +0.96587634     +0.25172938
a   5.0530924      Node    35.31689     -0.19384066     +0.85865115
e   0.5314083      Incl.    6.05231     -0.17178097     +0.44648686
P  11.4
From 135 observations 2011 Aug. 29-Dec. 24, mean residual 0".4.

・ 光度変化

        m1 = 13.5 + 5 logΔ + 10.0 log r

---------------------------------------------------------------------

軌道要素はM.P.E.C. 2011-Y66に掲載されたものです。
光度グラフはComet for Windowsで作成したものです。

---------------------------------------------------------------------

Copyright(C) Seiichi Yoshida (comet@aerith.net). All rights reserved.